Weather History for Morganton, NC

Change the Weather History Date:

Tuesday, July 10, 2012

  Actual Average (KHKY) Record (KHKY)
Temperature  
Mean Temperature 76 °F -  
Max Temperature 82 °F 89 °F 99 °F (1993)
Min Temperature 69 °F 68 °F 50 °F (1961)
Cooling Degree Days 10    
Growing Degree Days 26 (Base 50)    
Moisture  
Dew Point 70 °F    
Average Humidity 86    
Maximum Humidity 100    
Minimum Humidity 66    
Precipitation  
Precipitation 0.61 in - - ()
Sea Level Pressure  
Sea Level Pressure 30.07 in    
Wind  
Wind Speed 3 mph (NNE)    
Max Wind Speed 12 mph    
Max Gust Speed 18 mph    
Visibility 8 miles    
Events Rain    
Averages and records for this station are not official NWS values.
T = Trace of Precipitation, MM = Missing Value Source: NWS Daily Summary

Daily Weather History Graph

Daily Weather History Graph

Search for Another Location

Airport:

Trip Planner

Search our weather history database for the weather conditions in past years. The results will help you decide how hot, cold, wet, or windy it might be!

Date:

Astronomy

Jul. 10, 2012 Rise Set
Actual Time 6:18 AM EDT 8:44 PM EDT
Civil Twilight 5:49 AM EDT 9:14 PM EDT
Nautical Twilight 5:12 AM EDT 9:50 PM EDT
Astronomical Twilight 4:32 AM EDT 10:30 PM EDT
Moon 12:15 AM EDT (7/10) 1:26 PM EDT (7/10)
Length of Visible Light 15h 25m
Length of Day
14h 25m
Waning Gibbous, 54% of the Moon is Illuminated
Jul 10
Waning Gibbous
Jul 10
Last Quarter
Jul 19
New
Jul 26
First Quarter
Aug 1
Full

Hourly Weather History & Observations

Time (EDT) Temp. Heat Index Dew Point Humidity Pressure Visibility Wind Dir Wind Speed Gust Speed Precip Events Conditions
12:15 AM 77.0 °F - 68.0 °F 74% 30.05 in 10.0 mi ENE 6.9 mph - N/A   Mostly Cloudy
12:35 AM 77.0 °F - 68.0 °F 74% 30.06 in 10.0 mi ENE 6.9 mph 18.4 mph N/A   Overcast
12:55 AM 75.2 °F - 68.0 °F 78% 30.07 in 10.0 mi ENE 4.6 mph - N/A   Overcast
1:15 AM 71.6 °F - 69.8 °F 94% 30.07 in 2.0 mi East 3.5 mph - 0.24 in Rain Heavy Rain
1:35 AM 71.6 °F - 69.8 °F 94% 30.07 in 7.0 mi ENE 4.6 mph - 0.28 in Rain Light Rain
1:55 AM 71.6 °F - 69.8 °F 94% 30.07 in 10.0 mi NNW 4.6 mph - 0.28 in   Overcast
2:15 AM 71.6 °F - 69.8 °F 94% 30.06 in 7.0 mi NNE 3.5 mph - N/A   Mostly Cloudy
2:35 AM 71.6 °F - 69.8 °F 94% 30.06 in 7.0 mi Calm Calm - N/A   Mostly Cloudy
2:55 AM 69.8 °F - 69.8 °F 100% 30.05 in 7.0 mi North 3.5 mph - N/A   Overcast
3:15 AM 69.8 °F - 69.8 °F 100% 30.05 in 5.0 mi Calm Calm - N/A   Mostly Cloudy
3:35 AM 71.6 °F - 69.8 °F 94% 30.06 in 5.0 mi Calm Calm - N/A   Overcast
3:55 AM 71.6 °F - 71.6 °F 100% 30.05 in 4.0 mi Calm Calm - N/A   Overcast
4:15 AM 71.6 °F - 71.6 °F 100% 30.05 in 4.0 mi Calm Calm - N/A   Overcast
4:35 AM 69.8 °F - 69.8 °F 100% 30.05 in 2.5 mi Calm Calm - N/A Rain Light Rain
4:55 AM 69.8 °F - 69.8 °F 100% 30.05 in 3.0 mi Calm Calm - N/A   Overcast
5:15 AM 71.6 °F - 71.6 °F 100% 30.06 in 5.0 mi Calm Calm - N/A   Overcast
5:35 AM 71.6 °F - 71.6 °F 100% 30.05 in 5.0 mi Calm Calm - N/A   Overcast
5:55 AM 71.6 °F - 71.6 °F 100% 30.06 in 5.0 mi Calm Calm - N/A   Overcast
6:15 AM 71.6 °F - 71.6 °F 100% 30.06 in 7.0 mi Calm Calm - N/A   Overcast
6:35 AM 71.6 °F - 69.8 °F 94% 30.05 in 2.5 mi Calm Calm - N/A   Overcast
6:55 AM 71.6 °F - 69.8 °F 94% 30.04 in 5.0 mi Calm Calm - N/A   Mostly Cloudy
7:15 AM 71.6 °F - 71.6 °F 100% 30.05 in 4.0 mi North 3.5 mph - N/A   Mostly Cloudy
7:35 AM 71.6 °F - 71.6 °F 100% 30.05 in 4.0 mi North 3.5 mph - N/A   Overcast
7:55 AM 71.6 °F - 71.6 °F 100% 30.06 in 5.0 mi NW 4.6 mph - N/A   Overcast
8:15 AM 71.6 °F - 71.6 °F 100% 30.06 in 10.0 mi Calm Calm - N/A   Mostly Cloudy
8:35 AM 73.4 °F - 71.6 °F 94% 30.07 in 10.0 mi North 3.5 mph - 0.01 in   Mostly Cloudy
8:55 AM 73.4 °F - 69.8 °F 88% 30.07 in 10.0 mi Calm Calm - 0.01 in   Scattered Clouds
9:15 AM 73.4 °F - 71.6 °F 94% 30.08 in 10.0 mi Calm Calm - N/A   Scattered Clouds
9:55 AM 77.0 °F - 69.8 °F 78% 30.08 in 10.0 mi ESE 3.5 mph - N/A   Scattered Clouds
10:15 AM 78.8 °F - 69.8 °F 74% 30.08 in 10.0 mi Calm Calm - N/A   Mostly Cloudy
10:35 AM 77.0 °F - 69.8 °F 78% 30.09 in 10.0 mi Calm Calm - N/A   Overcast
10:55 AM 77.0 °F - 69.8 °F 78% 30.09 in 10.0 mi Calm Calm - N/A   Overcast
11:15 AM 78.8 °F - 69.8 °F 74% 30.09 in 10.0 mi Calm Calm - N/A   Mostly Cloudy
11:35 AM 78.8 °F - 69.8 °F 74% 30.10 in 10.0 mi Calm Calm - N/A   Scattered Clouds
11:55 AM 77.0 °F - 69.8 °F 78% 30.10 in 10.0 mi Calm Calm - N/A   Overcast
12:15 PM 78.8 °F - 71.6 °F 78% 30.08 in 10.0 mi East 5.8 mph - N/A   Mostly Cloudy
12:35 PM 78.8 °F - 69.8 °F 74% 30.09 in 10.0 mi SSE 3.5 mph - N/A   Scattered Clouds
12:55 PM 78.8 °F - 71.6 °F 78% 30.08 in 10.0 mi Calm Calm - N/A Rain Light Rain
1:15 PM 78.8 °F - 69.8 °F 74% 30.07 in 10.0 mi Calm Calm - N/A Rain Light Rain
1:35 PM 80.6 °F 83.9 °F 69.8 °F 70% 30.07 in 10.0 mi ESE 3.5 mph - N/A   Scattered Clouds
1:55 PM 80.6 °F 83.9 °F 69.8 °F 70% 30.07 in 10.0 mi Calm Calm - N/A   Mostly Cloudy
2:15 PM 80.6 °F 83.9 °F 69.8 °F 70% 30.06 in 10.0 mi Calm Calm - N/A   Overcast
2:35 PM 80.6 °F 83.9 °F 69.8 °F 70% 30.05 in 10.0 mi Calm Calm - N/A   Scattered Clouds
2:55 PM 80.6 °F 83.9 °F 69.8 °F 70% 30.04 in 10.0 mi Calm Calm - N/A   Clear
3:15 PM 80.6 °F 84.6 °F 71.6 °F 74% 30.04 in 10.0 mi Calm Calm - N/A   Clear
3:35 PM 82.4 °F 86.3 °F 69.8 °F 66% 30.03 in 10.0 mi North 9.2 mph - N/A   Clear
3:55 PM 80.6 °F 83.9 °F 69.8 °F 70% 30.03 in 10.0 mi North 11.5 mph 16.1 mph N/A   Clear
4:15 PM 80.6 °F 83.9 °F 69.8 °F 70% 30.05 in 10.0 mi North 9.2 mph - N/A   Scattered Clouds
4:35 PM 78.8 °F - 69.8 °F 74% 30.05 in 10.0 mi North 8.1 mph - N/A   Scattered Clouds
4:55 PM 77.0 °F - 68.0 °F 74% 30.05 in 10.0 mi NNE 6.9 mph - N/A Rain Light Rain
5:15 PM 77.0 °F - 68.0 °F 74% 30.05 in 10.0 mi NNE 5.8 mph - N/A   Scattered Clouds
5:35 PM 77.0 °F - 68.0 °F 74% 30.05 in 10.0 mi NNE 4.6 mph - N/A   Scattered Clouds
6:15 PM 77.0 °F - 69.8 °F 78% 30.06 in 10.0 mi North 5.8 mph - N/A   Overcast
6:35 PM 77.0 °F - 69.8 °F 78% 30.07 in 10.0 mi North 5.8 mph - N/A   Overcast
6:55 PM 77.0 °F - 68.0 °F 74% 30.07 in 10.0 mi North 5.8 mph - N/A   Overcast
7:15 PM 75.2 °F - 68.0 °F 78% 30.07 in 10.0 mi NNE 4.6 mph - N/A   Mostly Cloudy
7:35 PM 75.2 °F - 68.0 °F 78% 30.07 in 10.0 mi North 6.9 mph - N/A   Mostly Cloudy
7:55 PM 73.4 °F - 68.0 °F 83% 30.08 in 10.0 mi North 3.5 mph - N/A   Mostly Cloudy
8:15 PM 73.4 °F - 68.0 °F 83% 30.09 in 10.0 mi NNW 4.6 mph - N/A   Mostly Cloudy
8:35 PM 71.6 °F - 68.0 °F 88% 30.09 in 10.0 mi North 4.6 mph - N/A Rain Rain
8:55 PM 71.6 °F - 69.8 °F 94% 30.10 in 5.0 mi NNW 4.6 mph - 0.01 in Rain Rain
9:15 PM 69.8 °F - 69.8 °F 100% 30.12 in 5.0 mi NW 4.6 mph - 0.01 in Rain Rain
9:35 PM 69.8 °F - 69.8 °F 100% 30.12 in 5.0 mi WNW 5.8 mph - 0.05 in Rain Rain
9:55 PM 69.8 °F - 69.8 °F 100% 30.12 in 4.0 mi Calm Calm - 0.12 in Rain Heavy Rain
10:15 PM 69.8 °F - 69.8 °F 100% 30.12 in 2.0 mi Calm Calm - 0.06 in Rain Heavy Rain
10:35 PM 69.8 °F - 69.8 °F 100% 30.13 in 1.8 mi Calm Calm - 0.16 in Rain Heavy Rain
10:55 PM 69.8 °F - 69.8 °F 100% 30.13 in 3.0 mi NW 3.5 mph - 0.19 in Rain Light Rain
11:15 PM 69.8 °F - 69.8 °F 100% 30.13 in 4.0 mi Calm Calm - N/A   Clear
11:35 PM 69.8 °F - 69.8 °F 100% 30.14 in 4.0 mi Calm Calm - N/A   Scattered Clouds
11:55 PM 69.8 °F - 69.8 °F 100% 30.14 in 4.0 mi Calm Calm - N/A   Scattered Clouds